User: anonymous   Login
Location: Unspecified
(0.0000°N, 0.0000°E)
Time: 06:57:51
(UTC+00:00)
Language:

CBERS-1 - Orbit

View from above orbital plane
View from above orbital plane
View from above satellite
View from above satellite

Ground track
Ground track

The orbit data is extracted from the following two-line orbital elements,

1 25940U 99057A   17202.85889491 +.00000000 +00000-0 +15243-4 0  9993
2 25940 098.4919 142.1756 0003858 257.6539 102.4214 14.35393289930787
Epoch (UTC): 21 July 2017 20:36:48
Eccentricity: 0.0003858
inclination: 98.4919°
perigee height: 771 km
apogee height: 776 km
right ascension of ascending node: 142.1756°
argument of perigee: 257.6539°
revolutions per day: 14.35393289
mean anomaly at epoch: 102.4214°
orbit number at epoch: 93078

The dashed part of the orbit path shows where the satellite is in the earth's shadow,  

DLR